Location: Gebenbach
(49.5378°N, 11.8735°E)
Time: 03:34:58
(UTC+00:00)

Cosmos 2219 - Pass Details

Date: 29 October 2020
Orbit: 832 x 862 km, 71.1° (Epoch: 27 November)

Event Time Altitude Azimuth Distance (km) Brightness Sun altitude
Rises 16:19:32 0° 332° (NNW) 3,446 6.5 -4.6°
Reaches altitude 10° 16:22:02 10° 336° (NNW) 2,508 5.8 -5.0°
Maximum altitude 16:27:46 63° 57° (ENE) 965 3.3 -5.9°
Drops below altitude 10° 16:33:27 10° 139° (SE) 2,495 5.4 -6.8°
Sets 16:35:56 0° 142° (SE) 3,427 6.1 -7.2°
